TimeCST,TemperatureF,Dew PointF,Humidity,Sea Level PressureIn,VisibilityMPH,Wind Direction,Wind SpeedMPH,Gust SpeedMPH,PrecipitationIn,Events,Conditions,WindDirDegrees,DateUTC
12:15 AM,26.6,19.4,74,30.01,10.0,Calm,Calm,-,N/A,,Clear,0,2011-11-11 06:15:00
12:35 AM,26.6,19.4,74,30.00,10.0,South,3.5,-,N/A,,Clear,180,2011-11-11 06:35:00
12:55 AM,26.6,19.4,74,29.98,10.0,South,4.6,-,N/A,,Clear,180,2011-11-11 06:55:00
1:15 AM,26.6,19.4,74,29.98,10.0,South,4.6,-,N/A,,Clear,170,2011-11-11 07:15:00
1:35 AM,26.6,19.4,74,29.96,10.0,SSE,4.6,-,N/A,,Clear,150,2011-11-11 07:35:00
1:55 AM,26.6,19.4,74,29.96,10.0,South,6.9,-,N/A,,Clear,170,2011-11-11 07:55:00
2:15 AM,26.6,21.2,80,29.95,10.0,South,5.8,-,N/A,,Clear,170,2011-11-11 08:15:00
2:35 AM,28.4,21.2,74,29.94,10.0,SSE,5.8,-,N/A,,Clear,160,2011-11-11 08:35:00
2:55 AM,28.4,21.2,74,29.94,10.0,South,4.6,-,N/A,,Scattered Clouds,170,2011-11-11 08:55:00
3:15 AM,28.4,21.2,74,29.92,10.0,South,5.8,-,N/A,,Clear,170,2011-11-11 09:15:00
3:35 AM,28.4,21.2,74,29.91,10.0,South,4.6,-,N/A,,Clear,170,2011-11-11 09:35:00
3:55 AM,28.4,21.2,74,29.90,10.0,South,6.9,-,N/A,,Clear,170,2011-11-11 09:55:00
4:35 AM,28.4,21.2,74,29.89,10.0,South,6.9,-,N/A,,Clear,170,2011-11-11 10:35:00
4:55 AM,28.4,21.2,74,29.89,10.0,SSE,6.9,-,N/A,,Clear,160,2011-11-11 10:55:00
5:15 AM,30.2,21.2,69,29.87,10.0,SSE,9.2,-,N/A,,Clear,150,2011-11-11 11:15:00
5:35 AM,28.4,21.2,74,29.86,10.0,SSE,9.2,-,N/A,,Clear,160,2011-11-11 11:35:00
6:15 AM,30.2,21.2,69,29.85,10.0,South,9.2,-,N/A,,Clear,170,2011-11-11 12:15:00
6:35 AM,30.2,21.2,69,29.85,10.0,SSE,8.1,-,N/A,,Clear,160,2011-11-11 12:35:00
6:55 AM,30.2,19.4,64,29.85,10.0,SSE,8.1,-,N/A,,Clear,160,2011-11-11 12:55:00
7:15 AM,30.2,19.4,64,29.84,10.0,SSE,9.2,-,N/A,,Clear,160,2011-11-11 13:15:00
7:35 AM,30.2,21.2,69,29.84,10.0,SE,8.1,-,N/A,,Clear,140,2011-11-11 13:35:00
7:55 AM,30.2,21.2,69,29.83,10.0,SE,9.2,-,N/A,,Clear,140,2011-11-11 13:55:00
8:15 AM,30.2,21.2,69,29.82,10.0,SSE,11.5,-,N/A,,Clear,160,2011-11-11 14:15:00
9:15 AM,35.6,21.2,56,29.80,10.0,South,16.1,-,N/A,,Clear,170,2011-11-11 15:15:00
9:35 AM,35.6,21.2,56,29.79,10.0,South,16.1,-,N/A,,Clear,170,2011-11-11 15:35:00
10:15 AM,39.2,21.2,49,29.77,10.0,South,16.1,-,N/A,,Clear,170,2011-11-11 16:15:00
10:35 AM,39.2,21.2,49,29.76,10.0,South,18.4,-,N/A,,Clear,180,2011-11-11 16:35:00
10:55 AM,42.8,21.2,42,29.75,10.0,South,18.4,26.5,N/A,,Clear,180,2011-11-11 16:55:00
11:15 AM,42.8,23.0,46,29.74,10.0,South,17.3,-,N/A,,Clear,180,2011-11-11 17:15:00
11:35 AM,44.6,23.0,43,29.73,10.0,South,19.6,26.5,N/A,,Clear,180,2011-11-11 17:35:00
11:55 AM,44.6,24.8,46,29.72,10.0,South,18.4,-,N/A,,Clear,180,2011-11-11 17:55:00
12:35 PM,46.4,24.8,43,29.71,10.0,South,16.1,-,N/A,,Clear,190,2011-11-11 18:35:00
12:55 PM,46.4,26.6,46,29.70,10.0,South,13.8,-,N/A,,Clear,180,2011-11-11 18:55:00
1:15 PM,46.4,26.6,46,29.69,10.0,South,16.1,21.9,N/A,,Clear,170,2011-11-11 19:15:00
1:35 PM,46.4,26.6,46,29.69,10.0,SSW,12.7,-,N/A,,Clear,200,2011-11-11 19:35:00
1:55 PM,46.4,26.6,46,29.69,10.0,South,12.7,-,N/A,,Clear,180,2011-11-11 19:55:00
2:15 PM,46.4,28.4,50,29.68,10.0,SSW,13.8,17.3,N/A,,Clear,200,2011-11-11 20:15:00
2:35 PM,46.4,26.6,46,29.68,10.0,SSW,12.7,-,N/A,,Clear,200,2011-11-11 20:35:00
2:55 PM,46.4,28.4,50,29.68,10.0,SSW,13.8,-,N/A,,Clear,200,2011-11-11 20:55:00
3:15 PM,46.4,28.4,50,29.68,10.0,South,12.7,19.6,N/A,,Clear,190,2011-11-11 21:15:00
3:35 PM,46.4,28.4,50,29.69,10.0,SSW,10.4,-,N/A,,Clear,200,2011-11-11 21:35:00
3:55 PM,46.4,28.4,50,29.69,10.0,SSW,8.1,-,N/A,,Clear,200,2011-11-11 21:55:00
4:35 PM,42.8,30.2,61,29.69,10.0,SSW,6.9,-,N/A,,Clear,200,2011-11-11 22:35:00
4:55 PM,41.0,30.2,65,29.69,10.0,South,6.9,-,N/A,,Clear,190,2011-11-11 22:55:00
5:15 PM,39.2,28.4,65,29.69,10.0,South,5.8,-,N/A,,Clear,180,2011-11-11 23:15:00
5:35 PM,37.4,28.4,70,29.68,10.0,South,5.8,-,N/A,,Clear,180,2011-11-11 23:35:00
5:55 PM,35.6,28.4,75,29.68,10.0,South,8.1,-,N/A,,Clear,180,2011-11-11 23:55:00
6:15 PM,37.4,28.4,70,29.68,10.0,South,6.9,-,N/A,,Clear,170,2011-11-12 00:15:00
6:35 PM,37.4,28.4,70,29.67,10.0,South,8.1,-,N/A,,Clear,180,2011-11-12 00:35:00
6:55 PM,37.4,28.4,70,29.67,10.0,South,8.1,-,N/A,,Clear,180,2011-11-12 00:55:00
7:15 PM,37.4,28.4,70,29.67,10.0,South,8.1,-,N/A,,Clear,180,2011-11-12 01:15:00
7:35 PM,35.6,28.4,75,29.67,10.0,South,8.1,-,N/A,,Clear,180,2011-11-12 01:35:00
7:55 PM,37.4,28.4,70,29.66,7.0,South,8.1,-,N/A,,Clear,180,2011-11-12 01:55:00
8:15 PM,35.6,28.4,75,29.66,10.0,South,6.9,-,N/A,,Clear,180,2011-11-12 02:15:00
8:35 PM,35.6,28.4,75,29.66,10.0,South,8.1,-,N/A,,Clear,180,2011-11-12 02:35:00
8:55 PM,35.6,28.4,75,29.67,10.0,South,9.2,-,N/A,,Clear,180,2011-11-12 02:55:00
9:15 PM,35.6,28.4,75,29.67,10.0,South,9.2,-,N/A,,Clear,180,2011-11-12 03:15:00
9:55 PM,35.6,28.4,75,29.67,10.0,South,8.1,-,N/A,,Clear,180,2011-11-12 03:55:00
10:15 PM,35.6,28.4,75,29.67,10.0,South,6.9,-,N/A,,Clear,180,2011-11-12 04:15:00
10:35 PM,33.8,28.4,81,29.67,10.0,South,6.9,-,N/A,,Clear,180,2011-11-12 04:35:00
10:55 PM,33.8,28.4,81,29.67,10.0,South,6.9,-,N/A,,Clear,190,2011-11-12 04:55:00
11:15 PM,33.8,26.6,75,29.66,10.0,South,5.8,-,N/A,,Clear,190,2011-11-12 05:15:00
11:35 PM,33.8,26.6,75,29.66,10.0,South,6.9,-,N/A,,Clear,190,2011-11-12 05:35:00
11:55 PM,32.0,26.6,80,29.66,10.0,South,6.9,-,N/A,,Clear,190,2011-11-12 05:55:00